Torna al catalogo

DELTA 4 R/B

AttivoHEO
NORAD 29250·ROCKET BODY·🇺🇸 United States

Lanciato Jun 28, 2006 da Vandenberg Space Force Base

Loading…

Prossimi Passaggi (prossime 24 ore)

TLE

AggiornatoSource: Space-Track

Epoca: Sep 13, 2026, 23:42 UTC

1 29250U 06027B   26256.98779181  .00000030  00000-0  00000-0 0  9997
2 29250  63.0478 271.5921 6554674 255.8669  27.9192  2.17604559 59679

Traccia DELTA 4 R/B in tempo reale con AllMySat

Download on the App Store